Location: C�rilly
(46.6170°N, 2.8330°E)
Time: 13:01:03
(UTC+02:00)

ISS - Visible Passes

Search period start: 23 June 2021 00:00
Search period end: 03 July 2021 00:00
Orbit: 417 x 422 km, 51.6° (Epoch: 22 June)

Date Brightness Start Highest point End Pass type
(mag) Time Alt. Az. Time Alt. Az. Time Alt. Az.
28 Jun -2.0 05:01:12 10° SSW 05:03:56 23° SE 05:06:40 10° E visible
29 Jun -1.5 04:15:15 12° SSE 04:16:39 15° SE 04:18:40 10° E visible
30 Jun -3.4 05:02:30 11° SW 05:05:37 55° SSE 05:08:56 10° ENE visible
01 Jul -2.9 04:16:44 23° SSW 04:18:16 36° SE 04:21:23 10° ENE visible
02 Jul -2.3 03:30:56 23° SE 03:30:57 23° SE 03:33:42 10° E visible
02 Jul -3.5 05:04:09 10° WSW 05:07:31 69° NNW 05:10:54 10° ENE visible
